Millville, NJ

6:33 PM EDT on June 23, 2017 (GMT -0400)
Millville Municipal

Weather History for KMIV - September, 2012

Change the Weather History Date:

Sunday, September 16, 2012

  Actual Average Record
Temperature  
Mean Temperature 62 °F -  
Max Temperature 75 °F 77 °F 95 °F (1970)
Min Temperature 48 °F 57 °F 41 °F (2001)
Degree Days  
Heating Degree Days 4    
Growing Degree Days 12 (Base 50)    
Moisture  
Dew Point 48 °F    
Average Humidity 69    
Maximum Humidity 96    
Minimum Humidity 33    
Precipitation  
Precipitation 0.00 in - - ()
Sea Level Pressure  
Sea Level Pressure 30.11 in    
Wind  
Wind Speed 3 mph (West)    
Max Wind Speed 18 mph    
Max Gust Speed 26 mph    
Visibility 10 miles    
Events      
Averages and records for this station are not official NWS values.
T = Trace of Precipitation, MM = Missing Value Source: NWS Daily Summary

Daily Weather History Graph

Daily Weather History Graph

Search for Another Location

Airport or City:

Trip Planner

Search our weather history database for the weather conditions in past years. The results will help you decide how hot, cold, wet, or windy it might be!

Date:

Astronomy

Sep. 16, 2012 Rise Set
Actual Time 6:42 AM EDT 7:06 PM EDT
Civil Twilight 6:15 AM EDT 7:33 PM EDT
Nautical Twilight 5:44 AM EDT 8:04 PM EDT
Astronomical Twilight 5:11 AM EDT 8:36 PM EDT
Moon 7:18 AM EDT (9/16) 7:10 PM EDT (9/16)
Length of Visible Light 13h 17m
Length of Day
12h 23m
New Moon, 0% of the Moon is Illuminated
Sep 16
New Moon
Sep 22
First Quarter
Sep 29
Full
Oct 8
Last Quarter
Oct 15
New

Hourly Weather History & Observations

Time (EDT) Temp. Dew Point Humidity Pressure Visibility Wind Dir Wind Speed Gust Speed Precip Events Conditions
12:54 AM 50.0 °F 46.9 °F 89% 30.13 in 10.0 mi Calm Calm - N/A   Clear
1:54 AM 48.9 °F 46.9 °F 93% 30.13 in 10.0 mi Calm Calm - N/A   Clear
2:54 AM 48.0 °F 46.0 °F 93% 30.12 in 10.0 mi Calm Calm - N/A   Clear
3:54 AM 50.0 °F 48.0 °F 93% 30.12 in 10.0 mi Calm Calm - N/A   Overcast
4:54 AM 53.1 °F 50.0 °F 89% 30.12 in 10.0 mi Calm Calm - N/A   Overcast
5:54 AM 54.0 °F 51.1 °F 90% 30.13 in 10.0 mi Calm Calm - N/A   Overcast
6:54 AM 51.1 °F 50.0 °F 96% 30.14 in 10.0 mi Calm Calm - N/A   Partly Cloudy
7:54 AM 55.4 °F 51.8 °F 88% 30.15 in 10.0 mi Calm Calm - N/A   Clear
8:54 AM 62.6 °F 55.4 °F 77% 30.15 in 10.0 mi Calm Calm - N/A   Clear
9:54 AM 68.0 °F 55.0 °F 63% 30.15 in 10.0 mi SW 4.6 mph - N/A   Clear
10:54 AM 71.1 °F 54.0 °F 55% 30.14 in 10.0 mi Variable 4.6 mph - N/A   Clear
11:54 AM 73.0 °F 48.9 °F 42% 30.13 in 10.0 mi West 10.4 mph 17.3 mph N/A   Partly Cloudy
12:54 PM 75.0 °F 44.1 °F 33% 30.12 in 10.0 mi West 18.4 mph 26.5 mph N/A   Clear
1:54 PM 73.9 °F 45.0 °F 35% 30.10 in 10.0 mi West 15.0 mph - N/A   Clear
2:54 PM 75.0 °F 45.0 °F 34% 30.09 in 10.0 mi West 13.8 mph - N/A   Clear
3:54 PM 73.0 °F 46.0 °F 38% 30.07 in 10.0 mi WNW 11.5 mph - N/A   Clear
4:54 PM 73.9 °F 46.0 °F 37% 30.07 in 10.0 mi WNW 12.7 mph - N/A   Clear
5:54 PM 71.6 °F 46.4 °F 41% 30.07 in 10.0 mi WNW 8.1 mph - N/A   Clear
6:54 PM 66.0 °F 48.0 °F 52% 30.08 in 10.0 mi West 5.8 mph - N/A   Clear
7:54 PM 57.9 °F 51.1 °F 78% 30.09 in 10.0 mi West 3.5 mph - N/A   Clear
8:54 PM 54.0 °F 48.9 °F 83% 30.10 in 10.0 mi Calm Calm - N/A   Clear
9:54 PM 52.0 °F 48.0 °F 86% 30.10 in 10.0 mi Calm Calm - N/A   Clear
10:54 PM 48.0 °F 46.0 °F 93% 30.10 in 10.0 mi Calm Calm - N/A   Clear
11:54 PM 48.0 °F 45.0 °F 89% 30.10 in 10.0 mi Calm Calm - N/A   Clear